Weather History for Gainesville, GA

Change the Weather History Date:

Friday, April 11, 2014

  Actual Average Record
Temperature  
Mean Temperature 61 °F 59 °F  
Max Temperature 71 °F 70 °F 86 °F (1930)
Min Temperature 50 °F 49 °F 29 °F (1937)
Degree Days  
Heating Degree Days 4 7  
Month to date heating degree days 61 86  
Since 1 July heating degree days 3187 2938  
Cooling Degree Days 0 1  
Month to date cooling degree days 8 9  
Year to date cooling degree days 8 14  
Growing Degree Days 11 (Base 50)    
Moisture  
Dew Point 40 °F    
Average Humidity 51    
Maximum Humidity 71    
Minimum Humidity 31    
Precipitation  
Precipitation 0.00 in 0.13 in 1.86 in (2013)
Month to date precipitation 3.51 1.30  
Year to date precipitation 12.75 16.62  
Sea Level Pressure  
Sea Level Pressure 30.19 in    
Wind  
Wind Speed 7 mph (WSW)    
Max Wind Speed 16 mph    
Max Gust Speed 21 mph    
Visibility 10 miles    
Events      
T = Trace of Precipitation, MM = Missing Value Source: NWS Daily Summary

Daily Weather History Graph

Daily Weather History Graph

Search for Another Location

Airport:

Trip Planner

Search our weather history database for the weather conditions in past years. The results will help you decide how hot, cold, wet, or windy it might be!

Date:

Astronomy

Apr. 11, 2014 Rise Set
Actual Time 7:09 AM EDT 8:03 PM EDT
Civil Twilight 6:43 AM EDT 8:29 PM EDT
Nautical Twilight 6:13 AM EDT 8:59 PM EDT
Astronomical Twilight 5:42 AM EDT 9:31 PM EDT
Moon 4:51 PM EDT (4/11) 4:54 AM EDT (4/11)
Length of Visible Light 13h 45m
Length of Day
12h 54m
Waxing Gibbous, 87% of the Moon is Illuminated
Apr 11
Waxing Gibbous
Apr 15
Full
Apr 22
Last Quarter
Apr 29
New
May 6
First Quarter

Hourly Weather History & Observations

Time (EDT) Temp. Dew Point Humidity Pressure Visibility Wind Dir Wind Speed Gust Speed Precip Events Conditions
12:53 AM 59.0 °F 37.0 °F 44% 30.20 in 10.0 mi SSW 5.8 mph - N/A   Clear
1:53 AM 57.9 °F 37.9 °F 47% 30.20 in 10.0 mi SW 6.9 mph - N/A   Clear
2:53 AM 57.0 °F 37.9 °F 49% 30.19 in 10.0 mi SW 6.9 mph - N/A   Clear
3:53 AM 57.0 °F 37.9 °F 49% 30.19 in 10.0 mi SW 9.2 mph - N/A   Clear
4:53 AM 54.0 °F 39.0 °F 57% 30.18 in 10.0 mi WSW 9.2 mph - N/A   Clear
5:53 AM 53.1 °F 39.0 °F 59% 30.20 in 10.0 mi WSW 5.8 mph - N/A   Clear
6:53 AM 51.1 °F 39.9 °F 66% 30.22 in 10.0 mi West 4.6 mph - N/A   Clear
7:53 AM 52.0 °F 43.0 °F 71% 30.23 in 10.0 mi NW 4.6 mph - N/A   Clear
8:53 AM 57.0 °F 42.1 °F 57% 30.24 in 10.0 mi WNW 4.6 mph - N/A   Clear
9:53 AM 60.1 °F 42.1 °F 51% 30.24 in 10.0 mi West 5.8 mph - N/A   Clear
10:53 AM 62.1 °F 43.0 °F 50% 30.24 in 10.0 mi WSW 6.9 mph - N/A   Clear
11:53 AM 64.9 °F 42.1 °F 43% 30.24 in 10.0 mi WSW 10.4 mph - N/A   Clear
12:53 PM 66.0 °F 42.1 °F 42% 30.22 in 10.0 mi West 9.2 mph 20.7 mph N/A   Partly Cloudy
1:33 PM 68.0 °F 39.9 °F 36% 30.23 in 10.0 mi West 11.5 mph 18.4 mph N/A   Overcast
1:53 PM 68.0 °F 39.0 °F 35% 30.20 in 10.0 mi West 11.5 mph - N/A   Overcast
2:08 PM 68.0 °F 37.0 °F 32% 30.23 in 10.0 mi WNW 13.8 mph - N/A   Mostly Cloudy
2:53 PM 69.1 °F 37.0 °F 31% 30.18 in 10.0 mi SW 11.5 mph - N/A   Clear
3:53 PM 70.0 °F 37.0 °F 30% 30.15 in 10.0 mi WSW 11.5 mph - N/A   Clear
4:53 PM 70.0 °F 39.0 °F 32% 30.14 in 10.0 mi West 12.7 mph - N/A   Clear
5:53 PM 71.1 °F 39.0 °F 31% 30.13 in 10.0 mi West 9.2 mph - N/A   Clear
6:53 PM 70.0 °F 39.9 °F 33% 30.13 in 10.0 mi SW 9.2 mph - N/A   Clear
7:53 PM 66.9 °F 39.9 °F 37% 30.13 in 10.0 mi SW 5.8 mph - N/A   Clear
8:53 PM 64.0 °F 39.9 °F 41% 30.14 in 10.0 mi SW 3.5 mph - N/A   Clear
9:53 PM 62.1 °F 41.0 °F 46% 30.16 in 10.0 mi SW 3.5 mph - N/A   Clear
10:53 PM 60.1 °F 42.1 °F 51% 30.18 in 10.0 mi WSW 5.8 mph - N/A   Clear
11:53 PM 59.0 °F 42.1 °F 53% 30.19 in 10.0 mi West 3.5 mph - N/A   Clear